,,,PA_Meas_PMT16A,,PR_Meas_QMR101_102,,RH_Meas_QMH101,,SR_Meas_QMS101,,TA_Meas_QMH101,,GenWind,,GenWind,
date,time,status,PA,status,PR,status,RH,status,SR,status,TA,status,DirAvg,status,SpdAvg,
2011-09-09, 00:00:04,VALID,1001.59,VALID,0,VALID,89.8846,VALID,0,VALID,23.9939,VALID,38,VALID,0.319141,
2011-09-09, 00:01:04,VALID,1001.59,VALID,0,VALID,89.7854,VALID,0,VALID,23.9939,VALID,38,VALID,0.432813,
2011-09-09, 00:02:04,VALID,1001.59,VALID,0,VALID,89.7091,VALID,0,VALID,23.9921,VALID,38,VALID,0.549219,
2011-09-09, 00:03:04,VALID,1001.59,VALID,0,VALID,89.7014,VALID,0,VALID,24.0329,VALID,38,VALID,0.584375,
2011-09-09, 00:04:04,VALID,1001.61,VALID,0,VALID,89.6938,VALID,0,VALID,24.0543,VALID,38,VALID,0.548047,
2011-09-09, 00:05:04,VALID,1001.59,VALID,0,VALID,89.6709,VALID,0,VALID,24.0329,VALID,38,VALID,0.408594,
2011-09-09, 00:06:04,VALID,1001.58,VALID,0,VALID,89.6786,VALID,0,VALID,24.0329,VALID,38,VALID,0.328516,
2011-09-09, 00:07:04,VALID,1001.56,VALID,0,VALID,89.7091,VALID,0,VALID,23.9939,VALID,38,VALID,0.126953,
2011-09-09, 00:08:04,VALID,1001.55,VALID,0,VALID,89.732,VALID,0,VALID,23.9744,VALID,38,VALID,0,
2011-09-09, 00:09:04,VALID,1001.52,VALID,0,VALID,89.854,VALID,0,VALID,23.9549,VALID,38,VALID,0,
2011-09-09, 00:10:04,VALID,1001.49,VALID,0,VALID,89.999,VALID,0,VALID,23.9549,VALID,38,VALID,0.170312,
2011-09-09, 00:11:04,VALID,1001.43,VALID,0,VALID,90.1363,VALID,0,VALID,23.9354,VALID,38,VALID,0.253125,
2011-09-09, 00:12:04,VALID,1001.44,VALID,0,VALID,90.1974,VALID,0,VALID,23.9549,VALID,38,VALID,0.279297,
2011-09-09, 00:13:04,VALID,1001.41,VALID,0,VALID,90.1745,VALID,0,VALID,23.9744,VALID,38,VALID,0.0675781,
2011-09-09, 00:14:04,VALID,1001.44,VALID,0,VALID,90.1211,VALID,0,VALID,23.9549,VALID,38,VALID,0,
2011-09-09, 00:15:04,VALID,1001.39,VALID,0,VALID,90.06,VALID,0,VALID,23.9354,VALID,38,VALID,0,
2011-09-09, 00:16:04,VALID,1001.37,VALID,0,VALID,90.0524,VALID,0,VALID,23.9159,VALID,38,VALID,0,
2011-09-09, 00:17:04,VALID,1001.37,VALID,0,VALID,90.06,VALID,0,VALID,23.9159,VALID,38,VALID,0.181641,
2011-09-09, 00:18:04,VALID,1001.37,VALID,0,VALID,90.0906,VALID,0,VALID,23.9159,VALID,38,VALID,0.505859,
2011-09-09, 00:19:04,VALID,1001.34,VALID,0,VALID,90.0066,VALID,0,VALID,23.9354,VALID,57,VALID,0.755469,
2011-09-09, 00:20:04,VALID,1001.3,VALID,0,VALID,89.8769,VALID,0,VALID,23.9744,VALID,64,VALID,0.873047,
2011-09-09, 00:21:04,VALID,1001.29,VALID,0,VALID,89.6404,VALID,0,VALID,23.9939,VALID,69,VALID,0.804297,
2011-09-09, 00:22:04,VALID,1001.31,VALID,0,VALID,89.3505,VALID,0,VALID,24.0311,VALID,69,VALID,0.741016,
2011-09-09, 00:23:04,VALID,1001.28,VALID,0,VALID,88.9385,VALID,0,VALID,24.0933,VALID,71,VALID,0.711719,
2011-09-09, 00:24:04,VALID,1001.29,VALID,0,VALID,88.7783,VALID,0,VALID,24.1305,VALID,71,VALID,0.717188,
2011-09-09, 00:25:04,VALID,1001.31,VALID,0,VALID,88.6409,VALID,0,VALID,24.15,VALID,71,VALID,0.664063,
2011-09-09, 00:26:04,VALID,1001.32,VALID,0,VALID,88.4654,VALID,0,VALID,24.15,VALID,71,VALID,0.614062,
2011-09-09, 00:27:04,VALID,1001.32,VALID,0,VALID,88.3968,VALID,0,VALID,24.1909,VALID,71,VALID,0.60625,
2011-09-09, 00:28:04,VALID,1001.34,VALID,0,VALID,88.3892,VALID,0,VALID,24.1891,VALID,71,VALID,0.636328,
2011-09-09, 00:29:04,VALID,1001.35,VALID,0,VALID,88.3357,VALID,0,VALID,24.1891,VALID,71,VALID,0.363672,
2011-09-09, 00:30:04,VALID,1001.38,VALID,0,VALID,88.3205,VALID,0,VALID,24.1696,VALID,71,VALID,0,
2011-09-09, 00:31:04,VALID,1001.34,VALID,0,VALID,88.4426,VALID,0,VALID,24.15,VALID,71,VALID,0.0441406,
2011-09-09, 00:32:04,VALID,1001.35,VALID,0,VALID,88.6028,VALID,0,VALID,24.1324,VALID,71,VALID,0.358984,
2011-09-09, 00:33:04,VALID,1001.36,VALID,0,VALID,88.702,VALID,0,VALID,24.111,VALID,71,VALID,0.360547,
2011-09-09, 00:34:04,VALID,1001.39,VALID,0,VALID,88.8698,VALID,0,VALID,24.0915,VALID,71,VALID,0.379297,
2011-09-09, 00:35:04,VALID,1001.39,VALID,0,VALID,89.0224,VALID,0,VALID,24.0915,VALID,27,VALID,0.814453,
2011-09-09, 00:36:04,VALID,1001.42,VALID,0,VALID,89.1063,VALID,0,VALID,24.072,VALID,320,VALID,0.900781,
2011-09-09, 00:37:04,VALID,1001.43,VALID,0,VALID,89.1674,VALID,0,VALID,24.072,VALID,320,VALID,0.761328,
2011-09-09, 00:38:04,VALID,1001.45,VALID,0,VALID,89.3352,VALID,0,VALID,24.0738,VALID,320,VALID,0.686328,
2011-09-09, 00:39:04,VALID,1001.44,VALID,0,VALID,89.6404,VALID,0,VALID,24.0329,VALID,320,VALID,0.791797,
2011-09-09, 00:40:04,VALID,1001.45,VALID,0,VALID,89.8693,VALID,0,VALID,24.0134,VALID,320,VALID,0.673437,
2011-09-09, 00:41:04,VALID,1001.42,VALID,0,VALID,90.0753,VALID,0,VALID,23.9531,VALID,320,VALID,0.739453,
2011-09-09, 00:42:04,VALID,1001.37,VALID,0,VALID,90.2737,VALID,0,VALID,23.9726,VALID,320,VALID,0.463672,
2011-09-09, 00:43:04,VALID,1001.37,VALID,0,VALID,90.4568,VALID,0,VALID,23.9531,VALID,320,VALID,0.457422,
2011-09-09, 00:44:04,VALID,1001.32,VALID,0,VALID,90.5941,VALID,0,VALID,23.9336,VALID,320,VALID,0.524219,
2011-09-09, 00:45:04,VALID,1001.32,VALID,0,VALID,90.7238,VALID,0,VALID,23.9354,VALID,320,VALID,0.394531,
2011-09-09, 00:46:04,VALID,1001.3,VALID,0,VALID,90.8383,VALID,0,VALID,23.9354,VALID,320,VALID,0.194531,
2011-09-09, 00:47:04,VALID,1001.28,VALID,0,VALID,90.9451,VALID,0,VALID,23.9159,VALID,320,VALID,0.185937,
2011-09-09, 00:48:04,VALID,1001.25,VALID,0,VALID,91.0214,VALID,0,VALID,23.8963,VALID,320,VALID,0.0078125,
2011-09-09, 00:49:04,VALID,1001.21,VALID,0,VALID,91.1053,VALID,0,VALID,23.875,VALID,320,VALID,0.182422,
2011-09-09, 00:50:04,VALID,1001.2,VALID,0,VALID,91.1968,VALID,0,VALID,23.8573,VALID,320,VALID,0.110547,
2011-09-09, 00:51:04,VALID,1001.2,VALID,0,VALID,91.2579,VALID,0,VALID,23.8573,VALID,320,VALID,0.586328,
2011-09-09, 00:52:04,VALID,1001.16,VALID,0,VALID,91.3342,VALID,0,VALID,23.8378,VALID,93,VALID,0.836328,
2011-09-09, 00:53:04,VALID,1001.14,VALID,0,VALID,91.3494,VALID,0,VALID,23.8183,VALID,93,VALID,0.723047,
2011-09-09, 00:54:04,VALID,1001.11,VALID,0,VALID,91.3876,VALID,0,VALID,23.8201,VALID,93,VALID,0.763672,
2011-09-09, 00:55:04,VALID,1001.1,VALID,0,VALID,91.4105,VALID,0,VALID,23.7597,VALID,93,VALID,0.632813,
2011-09-09, 00:56:04,VALID,1001.08,VALID,0,VALID,91.3723,VALID,0,VALID,23.7402,VALID,93,VALID,0.347266,
2011-09-09, 00:57:04,VALID,1001.11,VALID,0,VALID,91.3647,VALID,0,VALID,23.7793,VALID,93,VALID,0.529688,
2011-09-09, 00:58:04,VALID,1001.08,VALID,0,VALID,91.3723,VALID,0,VALID,23.7793,VALID,91,VALID,0.506641,
2011-09-09, 00:59:04,VALID,1001.1,VALID,0,VALID,91.3494,VALID,0,VALID,23.8006,VALID,91,VALID,0.479688,
2011-09-09, 01:00:04,VALID,1001.11,VALID,0,VALID,91.3113,VALID,0,VALID,23.7811,VALID,91,VALID,0.295703,
2011-09-09, 01:01:04,VALID,1001.09,VALID,0,VALID,91.2655,VALID,0,VALID,23.7402,VALID,91,VALID,0.424219,
2011-09-09, 01:02:04,VALID,1001.08,VALID,0,VALID,91.2274,VALID,0,VALID,23.7207,VALID,91,VALID,0.540625,
2011-09-09, 01:03:04,VALID,1001.1,VALID,0,VALID,91.1892,VALID,0,VALID,23.7012,VALID,91,VALID,0.561328,
2011-09-09, 01:04:04,VALID,1001.11,VALID,0,VALID,91.1892,VALID,0,VALID,23.6835,VALID,91,VALID,0.719922,
2011-09-09, 01:05:04,VALID,1001.09,VALID,0,VALID,91.1892,VALID,0,VALID,23.6445,VALID,91,VALID,0.604688,
2011-09-09, 01:06:04,VALID,1001.08,VALID,0,VALID,91.2045,VALID,0,VALID,23.6036,VALID,24,VALID,0.553516,
2011-09-09, 01:07:04,VALID,1001.06,VALID,0,VALID,91.1968,VALID,0,VALID,23.6036,VALID,38,VALID,0.489062,
2011-09-09, 01:08:04,VALID,1001.03,VALID,0,VALID,91.2121,VALID,0,VALID,23.625,VALID,38,VALID,0.559766,
2011-09-09, 01:09:04,VALID,1001.05,VALID,0,VALID,91.1358,VALID,0,VALID,23.6427,VALID,150,VALID,0.925781,
2011-09-09, 01:10:04,VALID,1001.03,VALID,0,VALID,90.9451,VALID,0,VALID,23.6817,VALID,150,VALID,0.29375,
2011-09-09, 01:11:04,VALID,1001.05,VALID,0,VALID,90.6857,VALID,0,VALID,23.7402,VALID,150,VALID,0,
2011-09-09, 01:12:04,VALID,1001.05,VALID,0,VALID,90.4415,VALID,0,VALID,23.7793,VALID,150,VALID,0.119141,
2011-09-09, 01:13:04,VALID,1001.01,VALID,0,VALID,90.1821,VALID,0,VALID,23.7988,VALID,119,VALID,0.472266,
2011-09-09, 01:14:04,VALID,1001.03,VALID,0,VALID,89.8388,VALID,0,VALID,23.8573,VALID,180,VALID,0.425781,
2011-09-09, 01:15:04,VALID,1001.04,VALID,0,VALID,89.2894,VALID,0,VALID,23.9159,VALID,162,VALID,0.351172,
2011-09-09, 01:16:04,VALID,1001.02,VALID,0,VALID,88.6638,VALID,0,VALID,23.9549,VALID,162,VALID,0.872656,
2011-09-09, 01:17:04,VALID,1001.01,VALID,0,VALID,87.8322,VALID,0,VALID,24.0525,VALID,136,VALID,0.750781,
2011-09-09, 01:18:04,VALID,1001.02,VALID,0,VALID,87.1989,VALID,0,VALID,24.15,VALID,114,VALID,0.527344,
2011-09-09, 01:19:04,VALID,1001.01,VALID,0,VALID,86.6877,VALID,0,VALID,24.2495,VALID,114,VALID,0.336328,
2011-09-09, 01:20:04,VALID,1000.99,VALID,0,VALID,86.5199,VALID,0,VALID,24.2671,VALID,114,VALID,0.176953,
2011-09-09, 01:21:04,VALID,1000.99,VALID,0,VALID,87.0616,VALID,0,VALID,24.2671,VALID,114,VALID,0.353516,
2011-09-09, 01:22:04,VALID,1000.98,VALID,0,VALID,87.7177,VALID,0,VALID,24.2086,VALID,114,VALID,0.451562,
2011-09-09, 01:23:04,VALID,1000.98,VALID,0,VALID,88.1908,VALID,0,VALID,24.111,VALID,114,VALID,0.575391,
2011-09-09, 01:24:04,VALID,1000.98,VALID,0,VALID,88.6867,VALID,0,VALID,24.0329,VALID,114,VALID,0.761328,
2011-09-09, 01:25:04,VALID,1000.96,VALID,0,VALID,89.175,VALID,0,VALID,23.9549,VALID,114,VALID,0.734375,
2011-09-09, 01:26:04,VALID,1000.93,VALID,0,VALID,89.5489,VALID,0,VALID,23.8963,VALID,114,VALID,0.530078,
2011-09-09, 01:27:04,VALID,1000.91,VALID,0,VALID,89.8235,VALID,0,VALID,23.8573,VALID,114,VALID,0.292188,
2011-09-09, 01:28:04,VALID,1000.89,VALID,0,VALID,90.0143,VALID,0,VALID,23.8183,VALID,114,VALID,0.223438,
2011-09-09, 01:29:04,VALID,1000.88,VALID,0,VALID,90.2508,VALID,0,VALID,23.797,VALID,114,VALID,0.322656,
2011-09-09, 01:30:04,VALID,1000.88,VALID,0,VALID,90.4415,VALID,0,VALID,23.7988,VALID,114,VALID,0.362891,
2011-09-09, 01:31:04,VALID,1000.85,VALID,0,VALID,90.5636,VALID,0,VALID,23.7597,VALID,114,VALID,0.195313,
2011-09-09, 01:32:04,VALID,1000.84,VALID,0,VALID,90.6475,VALID,0,VALID,23.7402,VALID,114,VALID,0.348828,
2011-09-09, 01:33:04,VALID,1000.87,VALID,0,VALID,90.7391,VALID,0,VALID,23.6994,VALID,114,VALID,0.364062,
2011-09-09, 01:34:04,VALID,1000.86,VALID,0,VALID,90.7314,VALID,0,VALID,23.6994,VALID,114,VALID,0.424219,
2011-09-09, 01:35:04,VALID,1000.85,VALID,0,VALID,90.6628,VALID,0,VALID,23.7402,VALID,114,VALID,0.377734,
2011-09-09, 01:36:04,VALID,1000.86,VALID,0,VALID,90.3805,VALID,0,VALID,23.7207,VALID,114,VALID,0.569922,
2011-09-09, 01:37:04,VALID,1000.86,VALID,0,VALID,90.1058,VALID,0,VALID,23.7988,VALID,114,VALID,0.619141,
2011-09-09, 01:38:04,VALID,1000.88,VALID,0,VALID,89.8388,VALID,0,VALID,23.8573,VALID,114,VALID,0.483984,
2011-09-09, 01:39:04,VALID,1000.87,VALID,0,VALID,89.6709,VALID,0,VALID,23.8963,VALID,114,VALID,0.278516,
2011-09-09, 01:40:04,VALID,1000.9,VALID,0,VALID,89.5794,VALID,0,VALID,23.9159,VALID,114,VALID,0.154297,
2011-09-09, 01:41:04,VALID,1000.89,VALID,0,VALID,89.5946,VALID,0,VALID,23.8963,VALID,114,VALID,0.295312,
2011-09-09, 01:42:04,VALID,1000.97,VALID,0,VALID,89.6557,VALID,0,VALID,23.8963,VALID,30,VALID,0.921875,
2011-09-09, 01:43:04,VALID,1001.04,VALID,0,VALID,89.9532,VALID,0,VALID,23.8963,VALID,326,VALID,1.87031,
2011-09-09, 01:44:04,VALID,1001.18,VALID,0,VALID,90.205,VALID,0,VALID,23.8768,VALID,311,VALID,1.62109,
2011-09-09, 01:45:04,VALID,1001.2,VALID,0,VALID,90.4263,VALID,0,VALID,23.8768,VALID,307,VALID,2.55469,
2011-09-09, 01:46:04,VALID,1001.21,VALID,0,VALID,90.5102,VALID,0,VALID,23.8768,VALID,294,VALID,2.0457,
2011-09-09, 01:47:04,VALID,1001.23,VALID,0,VALID,90.4415,VALID,0,VALID,23.8963,VALID,287,VALID,1.41055,
2011-09-09, 01:48:04,VALID,1001.21,VALID,0,VALID,90.35,VALID,0,VALID,23.9159,VALID,277,VALID,0.708984,
2011-09-09, 01:49:04,VALID,1001.22,VALID,0,VALID,90.2889,VALID,0,VALID,23.8963,VALID,321,VALID,1.28945,
2011-09-09, 01:50:04,VALID,1001.19,VALID,0,VALID,90.0906,VALID,0,VALID,23.9159,VALID,324,VALID,1.21641,
2011-09-09, 01:51:04,VALID,1001.19,VALID,0,VALID,89.8846,VALID,0,VALID,23.9567,VALID,309,VALID,1.5875,
2011-09-09, 01:52:04,VALID,1001.19,VALID,0,VALID,89.7091,VALID,0,VALID,23.9744,VALID,289,VALID,1.19844,
2011-09-09, 01:53:04,VALID,1001.17,VALID,0,VALID,89.587,VALID,0,VALID,23.9939,VALID,298,VALID,1.03711,
2011-09-09, 01:54:04,VALID,1001.15,VALID,0,VALID,89.3963,VALID,0,VALID,23.9939,VALID,288,VALID,0.791016,
2011-09-09, 01:55:04,VALID,1001.17,VALID,0,VALID,89.3352,VALID,0,VALID,24.0134,VALID,305,VALID,1.07187,
2011-09-09, 01:56:04,VALID,1001.2,VALID,0,VALID,89.2589,VALID,0,VALID,24.0525,VALID,227,VALID,1.65703,
2011-09-09, 01:57:04,VALID,1001.21,VALID,0,VALID,89.2284,VALID,0,VALID,24.072,VALID,225,VALID,1.46875,
2011-09-09, 01:58:04,VALID,1001.24,VALID,0,VALID,88.7859,VALID,0,VALID,24.072,VALID,226,VALID,1.25859,
2011-09-09, 01:59:04,VALID,1001.24,VALID,0,VALID,88.3968,VALID,0,VALID,24.0915,VALID,238,VALID,0.899609,
2011-09-09, 02:00:04,VALID,1001.28,VALID,0,VALID,88.0611,VALID,0,VALID,24.111,VALID,252,VALID,0.557031,
2011-09-09, 02:01:04,VALID,1001.27,VALID,0,VALID,87.9695,VALID,0,VALID,24.1305,VALID,253,VALID,0.598828,
2011-09-09, 02:02:04,VALID,1001.29,VALID,0,VALID,87.8856,VALID,0,VALID,24.111,VALID,253,VALID,0.639063,
2011-09-09, 02:03:04,VALID,1001.31,VALID,0,VALID,87.672,VALID,0,VALID,24.111,VALID,253,VALID,0.771875,
2011-09-09, 02:04:04,VALID,1001.33,VALID,0,VALID,87.9848,VALID,0,VALID,24.1305,VALID,358,VALID,1.33867,
2011-09-09, 02:05:04,VALID,1001.32,VALID,0,VALID,88.1526,VALID,0,VALID,24.111,VALID,326,VALID,0.956641,
2011-09-09, 02:06:04,VALID,1001.32,VALID,0,VALID,86.2376,VALID,0,VALID,24.0897,VALID,332,VALID,1.24453,
2011-09-09, 02:07:04,VALID,1001.29,VALID,0,VALID,83.6512,VALID,0,VALID,24.1891,VALID,4,VALID,2.91016,
2011-09-09, 02:08:04,VALID,1001.28,VALID,0,VALID,80.935,VALID,0,VALID,24.2671,VALID,329,VALID,2.875,
2011-09-09, 02:09:04,VALID,1001.27,VALID,0,VALID,79.6609,VALID,0,VALID,24.3647,VALID,334,VALID,2.84453,
2011-09-09, 02:10:04,VALID,1001.26,VALID,0,VALID,78.5546,VALID,0,VALID,24.4233,VALID,331,VALID,3.09219,
2011-09-09, 02:11:04,VALID,1001.2,VALID,0,VALID,78.5317,VALID,0,VALID,24.4623,VALID,327,VALID,2.68555,
2011-09-09, 02:12:04,VALID,1001.18,VALID,0,VALID,78.814,VALID,0,VALID,24.4623,VALID,337,VALID,2.24375,
2011-09-09, 02:13:04,VALID,1001.13,VALID,0,VALID,77.8298,VALID,0,VALID,24.4214,VALID,345,VALID,3.70234,
2011-09-09, 02:14:04,VALID,1001.13,VALID,0,VALID,78.1807,VALID,0,VALID,24.4818,VALID,352,VALID,2.8707,
2011-09-09, 02:15:04,VALID,1001.11,VALID,0,VALID,78.0358,VALID,0,VALID,24.4233,VALID,356,VALID,3.33359,
2011-09-09, 02:16:04,VALID,1001.09,VALID,0,VALID,79.4091,VALID,0,VALID,24.4037,VALID,5,VALID,2.07969,
2011-09-09, 02:17:04,VALID,1001.11,VALID,0,VALID,80.0652,VALID,0,VALID,24.3238,VALID,20,VALID,1.94062,
2011-09-09, 02:18:04,VALID,1001.07,VALID,0,VALID,80.4391,VALID,0,VALID,24.2263,VALID,6,VALID,2.89844,
2011-09-09, 02:19:04,VALID,1001.07,VALID,0,VALID,80.4162,VALID,0,VALID,24.1891,VALID,346,VALID,1.22266,
2011-09-09, 02:20:04,VALID,1001.09,VALID,0,VALID,80.7824,VALID,0,VALID,24.111,VALID,345,VALID,2.01289,
2011-09-09, 02:21:04,VALID,1001.08,VALID,0,VALID,80.5917,VALID,0,VALID,24.0329,VALID,26,VALID,1.52461,
2011-09-09, 02:22:04,VALID,1001.06,VALID,0,VALID,79.3404,VALID,0,VALID,23.9921,VALID,336,VALID,2.3418,
2011-09-09, 02:23:04,VALID,1001.08,VALID,0,VALID,79.6914,VALID,0,VALID,23.9939,VALID,18,VALID,1.94102,
2011-09-09, 02:24:04,VALID,1001.06,VALID,0,VALID,78.4478,VALID,0,VALID,24.0134,VALID,358,VALID,1.95234,
2011-09-09, 02:25:04,VALID,1001.12,VALID,0,VALID,79.1192,VALID,0,VALID,24.0134,VALID,356,VALID,1.47266,
2011-09-09, 02:26:04,VALID,1001.1,VALID,0,VALID,80.1873,VALID,0,VALID,23.9531,VALID,9,VALID,0.948047,
2011-09-09, 02:27:04,VALID,1001.08,VALID,0,VALID,80.1034,VALID,0,VALID,23.875,VALID,28,VALID,1.00273,
2011-09-09, 02:28:04,VALID,1001.07,VALID,0,VALID,80.4086,VALID,0,VALID,23.8768,VALID,22,VALID,1.95703,
2011-09-09, 02:29:04,VALID,1001.09,VALID,0,VALID,80.0957,VALID,0,VALID,23.8378,VALID,4,VALID,1.83594,
2011-09-09, 02:30:04,VALID,1001.12,VALID,0,VALID,80.1644,VALID,0,VALID,23.8183,VALID,2,VALID,1.49844,
2011-09-09, 02:31:04,VALID,1001.14,VALID,0,VALID,80.0881,VALID,0,VALID,23.797,VALID,4,VALID,0.64375,
2011-09-09, 02:32:04,VALID,1001.21,VALID,0,VALID,80.3094,VALID,0,VALID,23.7775,VALID,13,VALID,1.32773,
2011-09-09, 02:33:04,VALID,1001.25,VALID,0,VALID,80.5688,VALID,0,VALID,23.7384,VALID,18,VALID,1.06875,
2011-09-09, 02:34:04,VALID,1001.27,VALID,0,VALID,81.4386,VALID,0,VALID,23.7207,VALID,18,VALID,0.961719,
2011-09-09, 02:35:04,VALID,1001.29,VALID,0,VALID,82.1939,VALID,0,VALID,23.6817,VALID,18,VALID,0.489062,
2011-09-09, 02:36:04,VALID,1001.24,VALID,0,VALID,82.934,VALID,0,VALID,23.6232,VALID,18,VALID,0.570313,
2011-09-09, 02:37:04,VALID,1001.24,VALID,0,VALID,83.468,VALID,0,VALID,23.5646,VALID,18,VALID,0.0828125,
2011-09-09, 02:38:04,VALID,1001.25,VALID,0,VALID,84.0098,VALID,0,VALID,23.4848,VALID,31,VALID,0.552734,
2011-09-09, 02:39:04,VALID,1001.18,VALID,0,VALID,84.0403,VALID,0,VALID,23.428,VALID,56,VALID,1.28086,
2011-09-09, 02:40:04,VALID,1001.19,VALID,0,VALID,84.4217,VALID,0,VALID,23.3695,VALID,50,VALID,1.2957,
2011-09-09, 02:41:04,VALID,1001.2,VALID,0,VALID,84.5743,VALID,0,VALID,23.311,VALID,52,VALID,1.38359,
2011-09-09, 02:42:04,VALID,1001.21,VALID,0,VALID,84.9406,VALID,0,VALID,23.2524,VALID,47,VALID,0.792188,
2011-09-09, 02:43:04,VALID,1001.15,VALID,0,VALID,85.3449,VALID,0,VALID,23.2329,VALID,56,VALID,0.701172,
2011-09-09, 02:44:04,VALID,1001.13,VALID,0,VALID,85.612,VALID,0,VALID,23.1939,VALID,108,VALID,1.13008,
2011-09-09, 02:45:04,VALID,1001.09,VALID,0,VALID,85.6806,VALID,0,VALID,23.1336,VALID,105,VALID,1.43203,
2011-09-09, 02:46:04,VALID,1001.01,VALID,0,VALID,85.6959,VALID,0,VALID,23.1354,VALID,97,VALID,1.43594,
2011-09-09, 02:47:04,VALID,1000.99,VALID,0,VALID,85.261,VALID,0,VALID,23.1354,VALID,112,VALID,1.91953,
2011-09-09, 02:48:04,VALID,1000.96,VALID,0,VALID,85.4899,VALID,0.112286,VALID,23.1531,VALID,111,VALID,1.76328,
2011-09-09, 02:49:04,VALID,1000.91,VALID,0,VALID,86.1003,VALID,0,VALID,23.1531,VALID,112,VALID,1.56953,
2011-09-09, 02:50:04,VALID,1000.92,VALID,0,VALID,86.4131,VALID,0,VALID,23.1336,VALID,116,VALID,1.51289,
2011-09-09, 02:51:04,VALID,1000.93,VALID,0,VALID,86.6725,VALID,0,VALID,23.1159,VALID,117,VALID,1.43477,
2011-09-09, 02:52:04,VALID,1000.97,VALID,0,VALID,86.352,VALID,0,VALID,23.0964,VALID,126,VALID,1.26328,
2011-09-09, 02:53:04,VALID,1001.01,VALID,0,VALID,86.2681,VALID,0,VALID,23.0751,VALID,133,VALID,1.25742,
2011-09-09, 02:54:04,VALID,1001.02,VALID,0,VALID,86.0316,VALID,0,VALID,23.0769,VALID,143,VALID,1.31055,
2011-09-09, 02:55:04,VALID,1001.07,VALID,0,VALID,85.818,VALID,0,VALID,23.0751,VALID,142,VALID,1.2332,
2011-09-09, 02:56:04,VALID,1001.06,VALID,0,VALID,85.3068,VALID,0,VALID,23.1354,VALID,150,VALID,1.39648,
2011-09-09, 02:57:04,VALID,1001.07,VALID,0,VALID,84.7346,VALID,0,VALID,23.1744,VALID,149,VALID,0.874609,
2011-09-09, 02:58:04,VALID,1001.05,VALID,0,VALID,84.3226,VALID,0,VALID,23.1921,VALID,150,VALID,0.609375,
2011-09-09, 02:59:04,VALID,1001.05,VALID,0,VALID,84.3912,VALID,0,VALID,23.2524,VALID,150,VALID,0.578516,
2011-09-09, 03:00:04,VALID,1001.05,VALID,0,VALID,84.3989,VALID,0,VALID,23.2524,VALID,150,VALID,0.676953,
2011-09-09, 03:01:04,VALID,1001.04,VALID,0,VALID,84.2386,VALID,0,VALID,23.2507,VALID,150,VALID,0.658594,
2011-09-09, 03:02:04,VALID,1001.06,VALID,0,VALID,83.5138,VALID,0,VALID,23.2507,VALID,139,VALID,0.979297,
2011-09-09, 03:03:04,VALID,1001.07,VALID,0,VALID,83.7198,VALID,0.112286,VALID,23.3305,VALID,139,VALID,1.11719,
2011-09-09, 03:04:04,VALID,1001.08,VALID,0,VALID,83.7122,VALID,0,VALID,23.3305,VALID,140,VALID,1.09648,
2011-09-09, 03:05:04,VALID,1001.1,VALID,0,VALID,83.4299,VALID,0,VALID,23.35,VALID,147,VALID,0.946484,
2011-09-09, 03:06:04,VALID,1001.1,VALID,0,VALID,83.5901,VALID,0,VALID,23.389,VALID,165,VALID,0.925781,
2011-09-09, 03:07:04,VALID,1001.11,VALID,0,VALID,83.8953,VALID,0,VALID,23.4085,VALID,165,VALID,0.980469,
2011-09-09, 03:08:04,VALID,1001.06,VALID,0,VALID,83.5901,VALID,0,VALID,23.389,VALID,159,VALID,1.20547,
2011-09-09, 03:09:04,VALID,1001.04,VALID,0,VALID,83.4452,VALID,0,VALID,23.4085,VALID,159,VALID,1.00781,
2011-09-09, 03:10:04,VALID,1001,VALID,0,VALID,83.0713,VALID,0,VALID,23.428,VALID,159,VALID,1.00703,
2011-09-09, 03:11:04,VALID,1000.98,VALID,0,VALID,82.6059,VALID,0,VALID,23.4671,VALID,157,VALID,0.854688,
2011-09-09, 03:12:04,VALID,1000.9,VALID,0,VALID,82.8195,VALID,0,VALID,23.4671,VALID,152,VALID,1.05078,
2011-09-09, 03:13:04,VALID,1000.89,VALID,0,VALID,83.2773,VALID,0,VALID,23.4671,VALID,149,VALID,1.2543,
2011-09-09, 03:14:04,VALID,1000.91,VALID,0,VALID,83.5596,VALID,0,VALID,23.4671,VALID,142,VALID,1.42109,
2011-09-09, 03:15:04,VALID,1000.84,VALID,0,VALID,83.7198,VALID,0,VALID,23.4085,VALID,141,VALID,1.50977,
2011-09-09, 03:16:04,VALID,1000.83,VALID,0,VALID,83.7732,VALID,0,VALID,23.389,VALID,141,VALID,1.42539,
2011-09-09, 03:17:04,VALID,1000.82,VALID,0,VALID,84.0784,VALID,0,VALID,23.3695,VALID,132,VALID,1.34687,
2011-09-09, 03:18:04,VALID,1000.82,VALID,0,VALID,84.3378,VALID,0,VALID,23.35,VALID,126,VALID,1.15664,
2011-09-09, 03:19:04,VALID,1000.82,VALID,0,VALID,84.6354,VALID,0.112286,VALID,23.2897,VALID,126,VALID,1.07969,
2011-09-09, 03:20:04,VALID,1000.82,VALID,0,VALID,85.0855,VALID,0,VALID,23.2719,VALID,125,VALID,0.958594,
2011-09-09, 03:21:04,VALID,1000.82,VALID,0,VALID,85.6883,VALID,0,VALID,23.2329,VALID,108,VALID,1.09648,
2011-09-09, 03:22:04,VALID,1000.87,VALID,0,VALID,86.3978,VALID,0,VALID,23.1939,VALID,108,VALID,1.04883,
2011-09-09, 03:23:04,VALID,1000.82,VALID,0,VALID,86.8937,VALID,0,VALID,23.1549,VALID,110,VALID,1.24531,
2011-09-09, 03:24:04,VALID,1000.82,VALID,0,VALID,87.1837,VALID,0,VALID,23.1159,VALID,111,VALID,1.20586,
2011-09-09, 03:25:04,VALID,1000.79,VALID,0,VALID,87.4354,VALID,0,VALID,23.0769,VALID,122,VALID,1.21875,
2011-09-09, 03:26:04,VALID,1000.78,VALID,0,VALID,87.5346,VALID,0,VALID,23.0573,VALID,123,VALID,1.19062,
2011-09-09, 03:27:04,VALID,1000.74,VALID,0,VALID,87.321,VALID,0,VALID,23.0378,VALID,131,VALID,1.08516,
2011-09-09, 03:28:04,VALID,1000.71,VALID,0,VALID,87.2066,VALID,0,VALID,23.0378,VALID,131,VALID,0.967188,
2011-09-09, 03:29:04,VALID,1000.68,VALID,0,VALID,87.1532,VALID,0,VALID,23.0183,VALID,131,VALID,0.686719,
2011-09-09, 03:30:04,VALID,1000.66,VALID,0,VALID,86.6801,VALID,0.112286,VALID,23.0378,VALID,131,VALID,0.777344,
2011-09-09, 03:31:04,VALID,1000.64,VALID,0,VALID,86.146,VALID,0,VALID,23.0573,VALID,131,VALID,0.832422,
2011-09-09, 03:32:04,VALID,1000.62,VALID,0,VALID,85.8866,VALID,0,VALID,23.0769,VALID,131,VALID,0.858984,
2011-09-09, 03:33:04,VALID,1000.58,VALID,0,VALID,85.467,VALID,0,VALID,23.0964,VALID,131,VALID,1.26875,
2011-09-09, 03:34:04,VALID,1000.57,VALID,0,VALID,85.0703,VALID,0,VALID,23.1159,VALID,131,VALID,1.52813,
2011-09-09, 03:35:04,VALID,1000.6,VALID,0,VALID,85.0855,VALID,0,VALID,23.1549,VALID,131,VALID,1.16562,
2011-09-09, 03:36:04,VALID,1000.58,VALID,0,VALID,85.1084,VALID,0,VALID,23.1744,VALID,135,VALID,1.31758,
2011-09-09, 03:37:04,VALID,1000.56,VALID,0,VALID,85.1008,VALID,0,VALID,23.1744,VALID,141,VALID,1.4375,
2011-09-09, 03:38:04,VALID,1000.54,VALID,0,VALID,84.8719,VALID,0,VALID,23.1939,VALID,138,VALID,1.80703,
2011-09-09, 03:39:04,VALID,1000.53,VALID,0,VALID,84.7574,VALID,0,VALID,23.2134,VALID,139,VALID,1.85117,
2011-09-09, 03:40:04,VALID,1000.59,VALID,0,VALID,84.9253,VALID,0,VALID,23.2329,VALID,140,VALID,1.87773,
2011-09-09, 03:41:04,VALID,1000.58,VALID,0,VALID,85.1008,VALID,0,VALID,23.2134,VALID,141,VALID,1.75469,
2011-09-09, 03:42:04,VALID,1000.57,VALID,0,VALID,85.1084,VALID,0,VALID,23.2134,VALID,141,VALID,1.62734,
2011-09-09, 03:43:04,VALID,1000.57,VALID,0,VALID,85.1084,VALID,0,VALID,23.2134,VALID,143,VALID,1.67109,
2011-09-09, 03:44:04,VALID,1000.58,VALID,0,VALID,85.0169,VALID,0,VALID,23.2134,VALID,140,VALID,1.73398,
2011-09-09, 03:45:04,VALID,1000.6,VALID,0,VALID,84.9253,VALID,0,VALID,23.2134,VALID,141,VALID,1.15703,
2011-09-09, 03:46:04,VALID,1000.62,VALID,0,VALID,84.4217,VALID,0,VALID,23.2134,VALID,142,VALID,1.55391,